Location: Bernay
(48.6766°N, 2.9386°E)
Time: 20:29:57
(UTC+00:00)

CBERS-1 - Pass Details

Date: 12 January 2026
Orbit: 765 x 772 km, 98.9° (Epoch: 15 February)

Event Time Altitude Azimuth Distance (km) Brightness Sun altitude
Rises 16:42:12 0° 162° (SSE) 3,226 7.4 -4.6°
Reaches altitude 10° 16:44:30 10° 163° (SSE) 2,303 6.6 -4.9°
Maximum altitude 16:49:35 89° 72° (ENE) 775 4.1 -5.7°
Drops below altitude 10° 16:54:42 10° 345° (NNW) 2,316 6.4 -6.4°
Sets 16:57:01 0° 346° (NNW) 3,246 7.1 -6.8°
